Regional Weather Roundup
Issued by NWS

Home | Current Version | Previous Version | Graphics & Text | Print | Product List | Glossary On
Versions: 1 2 3 4 5 6 7 8 9 10 11 12 13 14 15 16 17 18 19 20 21 22 23 24 25 26 27 28 29 30 31 32 33 34 35 36 37 38 39 40 41 42 43 44 45 46 47 48 49 50
000
ASUS43 KLMK 280910
RWRKY
KENTUCKY REGIONAL WEATHER ROUNDUP
NATIONAL WEATHER SERVICE LOUISVILLE KY
500 AM EDT SUN AUG 28 2016

NOTE "FAIR" INDICATES FEW OR NO CLOUDS BELOW 12,000 FEET
WITH NO SIGNIFICANT WEATHER AND/OR OBSTRUCTIONS TO VISIBILITY.

KYZ001>023-026-027-061>063-070>075-281000-
WESTERN AND SOUTH CENTRAL KENTUCKY

CITY           SKY/WX    TMP DP  RH WIND       PRES   REMARKS
PADUCAH        CLEAR     73  71  93 CALM      30.08S
HENDERSON      CLEAR     73  70  88 CALM      30.09S
OWENSBORO      CLEAR     77  76  96 CALM      30.11S
HOPKINSVILLE   CLEAR     72  72  99 N5        30.10R
BOWLING GREEN  CLEAR     73  71  93 CALM      30.11S FOG
GLASGOW        CLEAR     70  70 100 NE3       30.13R
$$

KYZ024-025-028>034-038-045-046-053-281000-
NORTH CENTRAL KENTUCKY

CITY           SKY/WX    TMP DP  RH WIND       PRES   REMARKS
LOUISVILLE/SDF PTCLDY    77  72  84 W3        30.12S
LOUISVILLE/LOU CLEAR     76  71  85 CALM      30.13S
FORT KNOX      CLEAR     71  70  98 NE1       30.12S
$$

KYZ035>037-039>044-047>052-055>060-089>105-281000-
NORTHEAST KENTUCKY

CITY           SKY/WX    TMP DP  RH WIND       PRES   REMARKS
LEXINGTON      CLEAR     72  70  93 CALM      30.15S
COVINGTON      MOCLDY    70  70 100 SE3       30.15S
FRANKFORT      PTCLDY    75  71  87 NW6       30.13S
$$

KYZ054-064>069-076>088-106>120-281000-
SOUTHEAST KENTUCKY

CITY           SKY/WX    TMP DP  RH WIND       PRES   REMARKS
JACKSON        CLOUDY    73  69  87 CALM      30.18R
LONDON         CLEAR     70  67  90 SE3       30.17S
SOMERSET       PTCLDY    68  68 100 CALM      30.16R
MIDDLESBORO    FOG       67  67 100 CALM      30.19R VSB 3/4
MONTICELLO     SUNNY    N/A N/A N/A N8        30.17S
$$





USA.gov is the U.S. government's official web portal to all federal, state and local government web resources and services.